sat.trackr.live / text

‹ back to catalog

STARLINK-36099

NORAD 66797 · 2025-278G

PAYLOAD ACTIVE UNKNOWN

§ Identity

Operator
Country
US
Launch date
2025-12-01
Launch site
AFETR
Launch vehicle
Mass (kg)
RCS (m²)

Purposes: comms

External: N2YO · Heavens-Above · Gunter

§ Orbital elements

Epoch: 2026-09-19T22:01:06.277728Z

Period
94.27 min
Inclination
43.0022°
Eccentricity
0.0001204
Mean motion
15.27587279 rev/d
Perigee alt
482.2 km
Apogee alt
483.9 km
Semi-major
6,861.2 km
B*
3.1717e-4
RAAN
97.4808°
Arg perigee
268.1971°
Mean anomaly
91.8743°
Rev number
4,491

§ Raw data

STARLINK-360991 66797U 25278G   26262.91743377  .00008478  00000+0  31717-3 0  99962 66797  43.0022  97.4808 0001204 268.1971  91.8743 15.27587279 44918

JSON: /api/v1/satellites/66797 · /tle

For live sub-satellite position, see the globe view (requires WebGL).

§ Visibility from observer

Set your observer location to see the next 7 days of passes ≥ 10°. The values pass through the URL so the page stays shareable.

No JS? Fill the form by hand. The geolocation button needs JavaScript.